This is the latest recevied weather packets stored in our database for station/object W0SS-13. If no packets are shown the sender has not sent any weather packets the latest 1 day(s).
| Time | Temp. | Humidity | Pressure | Rain* | Wind** | Luminosity | Snow |
|---|---|---|---|---|---|---|---|
| 1778005750 | 8.89° C | 85% | 1013.7 hPa | 0 mm | 0.89 m/s, 26° | 159 W/m² | - |
| 1778005447 | 8.89° C | 85% | 1013.7 hPa | 0 mm | 0 m/s | 182 W/m² | - |
| 1778005143 | 8.89° C | 84% | 1013.9 hPa | 0 mm | 0.89 m/s, 26° | 154 W/m² | - |
| 1778004841 | 8.89° C | 84% | 1013.9 hPa | 0 mm | 0.89 m/s, 79° | 157 W/m² | - |
| 1778004537 | 8.33° C | 84% | 1013.9 hPa | 0 mm | 0 m/s | 170 W/m² | - |
| 1778004234 | 8.33° C | 83% | 1014 hPa | 0 mm | 1.34 m/s, 13° | 124 W/m² | - |
| 1778003930 | 8.33° C | 84% | 1014 hPa | 0 mm | 1.34 m/s, 153° | 137 W/m² | - |
| 1778003627 | 8.89° C | 83% | 1014 hPa | 0 mm | 0.89 m/s, 81° | 160 W/m² | - |
| 1778003323 | 8.33° C | 83% | 1014 hPa | 0 mm | 0.45 m/s, 68° | 181 W/m² | - |
| 1778003021 | 8.33° C | 83% | 1014.1 hPa | 0 mm | 0.89 m/s, 57° | 204 W/m² | - |
| 1778002717 | 8.33° C | 83% | 1013.9 hPa | 0 mm | 1.79 m/s, 42° | 125 W/m² | - |
| 1778002413 | 8.33° C | 82% | 1014 hPa | 0 mm | 1.79 m/s, 31° | 108 W/m² | - |
| 1778002111 | 8.33° C | 83% | 1014 hPa | 0 mm | 1.79 m/s, 45° | 171 W/m² | - |
| 1778001808 | 8.33° C | 84% | 1013.9 hPa | 0 mm | 0.89 m/s, 45° | 170 W/m² | - |
| 1778001508 | 8.33° C | 85% | 1013.9 hPa | 1.78 mm | 1.79 m/s, 47° | 213 W/m² | - |
| 1778001205 | 8.33° C | 84% | 1013.8 hPa | 1.78 mm | 1.79 m/s, 120° | 165 W/m² | - |
| 1778000901 | 8.33° C | 84% | 1013.9 hPa | 1.27 mm | 0.45 m/s, 141° | 203 W/m² | - |
| 1778000598 | 8.33° C | 84% | 1013.6 hPa | 1.27 mm | 0.89 m/s, 75° | 236 W/m² | - |
| 1778000294 | 8.33° C | 84% | 1013.6 hPa | 0 mm | 1.79 m/s, 81° | 213 W/m² | - |
| 1777999989 | 8.33° C | 85% | 1013.6 hPa | 0 mm | 0.45 m/s, 89° | 148 W/m² | - |
| 1777999685 | 8.33° C | 84% | 1013.7 hPa | 0 mm | 0.45 m/s, 120° | 91 W/m² | - |
| 1777999383 | 8.33° C | 84% | 1013.9 hPa | 0 mm | 2.68 m/s, 81° | 94 W/m² | - |
| 1777999081 | 8.33° C | 85% | 1013.4 hPa | 0 mm | 1.34 m/s, 115° | 143 W/m² | - |
| 1777998779 | 8.33° C | 85% | 1013.5 hPa | 0 mm | 0.89 m/s, 95° | 154 W/m² | - |
| 1777998476 | 8.33° C | 85% | 1013.3 hPa | 1.78 mm | 1.34 m/s, 121° | 137 W/m² | - |
* Rain latest hour (hover to see other rain measurements)
** Current wind speed in m/s (hover to see current wind gust speed)